DW5963 Weather Reports


time (UTC)temp
C
wind
direction
speed
KPH
gust
KPH
rain 1hr
cm
rain 24hr
cm
rain mn
cm
humidity
%
barometer
mb
20260903030540 23 360 14.5 0.0 0.00 0.00 0.00 64 1003.6
20260903030044 23 360 12.9 0.0 0.00 0.00 0.00 64 1003.7
20260903025540 23 360 12.9 0.0 0.00 0.00 0.00 64 1003.8
20260903025040 23 360 12.9 0.0 0.00 0.00 0.00 64 1003.9
20260903024545 23 360 14.5 0.0 0.00 0.00 0.00 64 1003.7
20260903023542 24 120 16.1 0.0 0.00 0.00 0.00 62 1003.5
20260903023041 24 121 16.1 0.0 0.00 0.00 0.00 62 1003.5
20260903022540 25 115 16.1 0.0 0.00 0.00 0.00 62 1003.6
20260903022040 25 123 17.7 0.0 0.00 0.00 0.00 61 1003.8
20260903021546 25 114 17.7 0.0 0.00 0.00 0.00 61 1003.9
20260903021039 25 126 19.3 0.0 0.00 0.00 0.00 60 1003.9
20260903020540 25 116 19.3 0.0 0.00 0.00 0.00 60 1003.8
20260903020039 25 126 19.3 0.0 0.00 0.00 0.00 60 1003.6
20260903015540 25 121 20.9 0.0 0.00 0.00 0.00 60 1003.5
20260903015038 25 123 19.3 0.0 0.00 0.00 0.00 59 1003.5
20260903014543 25 128 19.3 0.0 0.00 0.00 0.00 59 1003.5
20260903013540 26 360 17.7 0.0 0.00 0.00 0.00 58 1003.6
20260903013040 26 360 17.7 0.0 0.00 0.00 0.00 58 1003.6
20260903012539 26 360 17.7 0.0 0.00 0.00 0.00 57 1003.6
20260903012039 26 360 19.3 0.0 0.00 0.00 0.00 57 1003.4
20260903011542 26 360 19.3 0.0 0.00 0.00 0.00 56 1003.4
20260903011039 27 360 19.3 0.0 0.00 0.00 0.00 55 1003.4
20260903010539 27 360 19.3 0.0 0.00 0.00 0.00 54 1003.3
20260903010039 27 360 19.3 0.0 0.00 0.00 0.00 54 1003.3
20260903005541 27 360 19.3 0.0 0.00 0.00 0.00 53 1003.3
20260903005038 27 360 19.3 0.0 0.00 0.00 0.00 52 1003.3
20260903004542 28 360 19.3 0.0 0.00 0.00 0.00 52 1003.3
20260903003537 28 360 20.9 0.0 0.00 0.00 0.00 51 1003.3
20260903003036 28 360 19.3 0.0 0.00 0.00 0.00 50 1003.2
20260903002537 28 360 17.7 0.0 0.00 0.00 0.00 50 1003.2
20260903002036 28 360 17.7 0.0 0.00 0.00 0.00 50 1003.3
20260903001536 28 360 17.7 0.0 0.00 0.00 0.00 50 1003.2
20260903001035 28 360 19.3 0.0 0.00 0.00 0.00 48 1003.3
20260903000535 29 360 22.5 0.0 0.00 0.00 0.00 47 1003.3
20260903000035 29 360 22.5 0.0 0.00 0.00 0.00 47 1003.3
20260902235535 29 360 20.9 0.0 0.00 0.00 0.00 47 1003.2
20260902235033 30 360 20.9 0.0 0.00 0.00 0.00 48 1003.4
20260902234533 30 360 20.9 0.0 0.00 0.00 0.00 48 1003.4
20260902233533 30 360 20.9 0.0 0.00 0.00 0.00 46 1003.6
20260902233037 30 360 20.9 0.0 0.00 0.00 0.00 45 1003.6
20260902232533 30 360 19.3 0.0 0.00 0.00 0.00 46 1003.7
20260902232032 30 360 19.3 0.0 0.00 0.00 0.00 46 1003.6
20260902231536 30 360 19.3 0.0 0.00 0.00 0.00 46 1003.7
20260902231034 30 360 19.3 0.0 0.00 0.00 0.00 46 1003.8
20260902230531 30 360 19.3 0.0 0.00 0.00 0.00 47 1003.8
20260902230031 29 360 19.3 0.0 0.00 0.00 0.00 46 1003.8
20260902225530 30 360 20.9 0.0 0.00 0.00 0.00 44 1003.8
20260902225031 30 360 22.5 0.0 0.00 0.00 0.00 44 1003.7
20260902224530 30 360 22.5 0.0 0.00 0.00 0.00 46 1003.7
20260902223530 30 360 20.9 0.0 0.00 0.00 0.00 43 1003.7
20260902223030 30 360 20.9 0.0 0.00 0.00 0.00 45 1003.7
20260902222530 30 360 20.9 0.0 0.00 0.00 0.00 46 1003.8
20260902222029 30 360 20.9 0.0 0.00 0.00 0.00 46 1003.9
20260902221528 30 360 20.9 0.0 0.00 0.00 0.00 46 1003.8
20260902221028 30 360 20.9 0.0 0.00 0.00 0.00 45 1004.0
20260902220527 30 360 20.9 0.0 0.00 0.00 0.00 45 1003.9
20260902220030 30 360 19.3 0.0 0.00 0.00 0.00 46 1004.0
20260902215526 30 360 19.3 0.0 0.00 0.00 0.00 45 1004.0
20260902215025 30 360 20.9 0.0 0.00 0.00 0.00 46 1004.1
20260902214524 30 360 19.3 0.0 0.00 0.00 0.00 46 1004.3
20260902213523 29 360 17.7 0.0 0.00 0.00 0.00 47 1004.3
20260902213023 29 360 19.3 0.0 0.00 0.00 0.00 47 1004.3
20260902212524 30 360 22.5 0.0 0.00 0.00 0.00 45 1004.4
20260902212024 30 360 22.5 0.0 0.00 0.00 0.00 44 1004.5
20260902211522 31 360 20.9 0.0 0.00 0.00 0.00 45 1004.5
20260902211022 31 360 22.5 0.0 0.00 0.00 0.00 45 1004.5
20260902210522 30 360 22.5 0.0 0.00 0.00 0.00 44 1004.6
20260902210021 31 360 20.9 0.0 0.00 0.00 0.00 45 1004.6
20260902205520 31 360 19.3 0.0 0.00 0.00 0.00 44 1004.8
20260902205021 30 360 20.9 0.0 0.00 0.00 0.00 44 1004.8
20260902204535 30 360 22.5 0.0 0.00 0.00 0.00 45 1005.1
20260902203517 30 360 24.1 0.0 0.00 0.00 0.00 45 1005.1
20260902203018 30 360 24.1 0.0 0.00 0.00 0.00 44 1005.2
20260902202517 30 360 24.1 0.0 0.00 0.00 0.00 45 1005.2
20260902202016 30 360 22.5 0.0 0.00 0.00 0.00 44 1005.2
20260902201526 30 360 22.5 0.0 0.00 0.00 0.00 45 1005.3
20260902201014 30 360 20.9 0.0 0.00 0.00 0.00 45 1005.4
20260902200515 30 360 22.5 0.0 0.00 0.00 0.00 44 1005.5
20260902200013 30 360 24.1 0.0 0.00 0.00 0.00 45 1005.6
20260902195513 30 360 22.5 0.0 0.00 0.00 0.00 45 1005.7
20260902195011 30 360 22.5 0.0 0.00 0.00 0.00 44 1005.7
20260902194511 30 360 20.9 0.0 0.00 0.00 0.00 45 1005.7
20260902193511 30 360 22.5 0.0 0.00 0.00 0.00 43 1005.6
20260902193011 30 360 24.1 0.0 0.00 0.00 0.00 44 1005.7
20260902192511 30 360 22.5 0.0 0.00 0.00 0.00 44 1005.8
20260902192010 30 360 20.9 0.0 0.00 0.00 0.00 44 1005.9
20260902191515 30 360 20.9 0.0 0.00 0.00 0.00 45 1005.9
20260902191011 29 360 20.9 0.0 0.00 0.00 0.00 46 1006.0
20260902190507 29 360 20.9 0.0 0.00 0.00 0.00 46 1006.3
20260902190005 29 360 22.5 0.0 0.00 0.00 0.00 46 1006.3
20260902185505 29 360 22.5 0.0 0.00 0.00 0.00 46 1006.4
20260902185003 29 360 22.5 0.0 0.00 0.00 0.00 47 1006.4
20260902184504 28 360 22.5 0.0 0.00 0.00 0.00 47 1006.5
20260902183503 29 360 22.5 0.0 0.00 0.00 0.00 47 1006.7
20260902183002 28 360 22.5 0.0 0.00 0.00 0.00 48 1006.7
20260902182503 28 360 22.5 0.0 0.00 0.00 0.00 48 1006.9
20260902182100 28 360 22.5 0.0 0.00 0.00 0.00 49 1006.9
20260902181613 28 360 22.5 0.0 0.00 0.00 0.00 49 1006.9
20260902181059 28 124 24.1 0.0 0.00 0.00 0.00 49 1007.1
20260902180557 28 109 24.1 0.0 0.00 0.00 0.00 50 1007.2
20260902180100 28 360 25.7 0.0 0.00 0.00 0.00 50 1007.2
20260902175556 27 360 25.7 0.0 0.00 0.00 0.00 52 1007.2
20260902175054 27 119 24.1 0.0 0.00 0.00 0.00 52 1007.3
20260902174554 27 360 22.5 0.0 0.00 0.00 0.00 53 1007.4
20260902174153 27 124 22.5 0.0 0.00 0.00 0.00 53 1007.6
20260902173552 27 360 22.5 0.0 0.00 0.00 0.00 53 1007.6
20260902173051 27 360 22.5 0.0 0.00 0.00 0.00 54 1007.7
20260902172553 26 360 22.5 0.0 0.00 0.00 0.00 54 1007.8
20260902172049 26 360 20.9 0.0 0.00 0.00 0.00 54 1007.8
20260902171556 26 150 19.3 0.0 0.00 0.00 0.00 55 1008.0
20260902171047 26 360 19.3 0.0 0.00 0.00 0.00 56 1008.0
20260902170545 26 105 19.3 0.0 0.00 0.00 0.00 55 1008.2
20260902170045 26 360 19.3 0.0 0.00 0.00 0.00 55 1008.2
20260902165545 26 360 19.3 0.0 0.00 0.00 0.00 55 1008.3
20260902165043 25 360 19.3 0.0 0.00 0.00 0.00 56 1008.3
20260902164551 25 360 19.3 0.0 0.00 0.00 0.00 56 1008.3
20260902164142 25 360 20.9 0.0 0.00 0.00 0.00 56 1008.4
20260902163542 25 360 20.9 0.0 0.00 0.00 0.00 56 1008.4
20260902163046 24 360 20.9 0.0 0.00 0.00 0.00 56 1008.5
20260902162540 24 360 19.3 0.0 0.00 0.00 0.00 56 1008.5
20260902162039 24 360 19.3 0.0 0.00 0.00 0.00 55 1008.5
20260902161538 23 360 19.3 0.0 0.00 0.00 0.00 55 1008.6
20260902161040 23 360 17.7 0.0 0.00 0.00 0.00 55 1008.6
20260902160538 23 360 17.7 0.0 0.00 0.00 0.00 56 1008.5
20260902160036 23 360 19.3 0.0 0.00 0.00 0.00 57 1008.7
20260902155534 23 360 19.3 0.0 0.00 0.00 0.00 57 1008.7
20260902155033 23 360 19.3 0.0 0.00 0.00 0.00 58 1008.8
20260902154538 23 360 17.7 0.0 0.00 0.00 0.00 58 1008.8
20260902154132 22 174 17.7 0.0 0.00 0.00 0.00 59 1008.8
20260902153532 22 360 17.7 0.0 0.00 0.00 0.00 59 1008.9
20260902153037 22 360 17.7 0.0 0.00 0.00 0.00 59 1008.9
20260902152529 22 360 17.7 0.0 0.00 0.00 0.00 60 1008.8
20260902152028 22 161 17.7 0.0 0.00 0.00 0.00 60 1009.0
20260902151527 21 150 19.3 0.0 0.00 0.00 0.00 60 1009.0
20260902151025 21 360 19.3 0.0 0.00 0.00 0.00 61 1009.2
20260902150528 21 360 17.7 0.0 0.00 0.00 0.00 61 1009.1
20260902150026 21 360 16.1 0.0 0.00 0.00 0.00 61 1009.3
20260902145522 20 360 16.1 0.0 0.00 0.00 0.00 63 1009.2
20260902145021 20 360 17.7 0.0 0.00 0.00 0.00 64 1009.3
20260902144519 20 360 17.7 0.0 0.00 0.00 0.00 64 1009.3
20260902144119 18 360 17.7 0.0 0.00 0.00 0.00 64 1009.3
20260902143518 18 360 17.7 0.0 0.00 0.00 0.00 65 1009.3
20260902143020 18 360 16.1 0.0 0.00 0.00 0.00 65 1009.4
20260902142516 18 360 12.9 0.0 0.00 0.00 0.00 67 1009.5
20260902142015 17 360 12.9 0.0 0.00 0.00 0.00 68 1009.5
20260902141522 17 360 12.9 0.0 0.00 0.00 0.00 69 1009.7
20260902141012 17 360 11.3 0.0 0.00 0.00 0.00 70 1009.6
20260902140511 17 360 11.3 0.0 0.00 0.00 0.00 70 1009.7
20260902140011 16 360 9.7 0.0 0.00 0.00 0.00 72 1009.7
20260902135507 16 360 9.7 0.0 0.00 0.00 0.00 73 1009.7
20260902135007 16 360 9.7 0.0 0.00 0.00 0.00 73 1009.8
20260902134506 16 360 8.0 0.0 0.00 0.00 0.00 74 1009.8
20260902134105 15 360 6.4 0.0 0.00 0.00 0.00 76 1009.7
20260902133505 15 360 6.4 0.0 0.00 0.00 0.00 76 1009.7
20260902133006 15 360 6.4 0.0 0.00 0.00 0.00 78 1009.7
20260902132509 15 360 4.8 0.0 0.00 0.00 0.00 80 1009.7
20260902132105 14 360 3.2 0.0 0.00 0.00 0.00 81 1009.8
20260902131505 13 360 3.2 0.0 0.00 0.00 0.00 81 1009.7
20260902131005 13 360 4.8 0.0 0.00 0.00 0.00 81 1009.8
20260902130505 13 360 3.2 0.0 0.00 0.00 0.00 82 1009.7
20260902130004 13 360 1.6 0.0 0.00 0.00 0.00 82 1009.8
20260902125506 12 360 3.2 0.0 0.00 0.00 0.00 82 1009.7
20260902125004 12 360 3.2 0.0 0.00 0.00 0.00 81 1009.6
20260902124514 13 360 3.2 0.0 0.00 0.00 0.00 81 1009.6
20260902124103 13 360 1.6 0.0 0.00 0.00 0.00 81 1009.8
20260902123503 13 360 1.6 0.0 0.00 0.00 0.00 80 1009.7
20260902123003 13 360 1.6 0.0 0.00 0.00 0.00 81 1009.7
20260902122503 13 360 3.2 0.0 0.00 0.00 0.00 81 1009.7
20260902122004 13 360 4.8 0.0 0.00 0.00 0.00 82 1009.6
20260902121502 13 360 4.8 0.0 0.00 0.00 0.00 83 1009.6
20260902121002 12 360 3.2 0.0 0.00 0.00 0.00 83 1009.6
20260902120502 12 360 0.0 0.0 0.00 0.00 0.00 84 1009.6
20260902120005 12 360 0.0 0.0 0.00 0.00 0.00 83 1009.4
20260902115501 12 360 1.6 0.0 0.00 0.00 0.00 83 1009.5
20260902115001 12 360 3.2 0.0 0.00 0.00 0.00 84 1009.6
20260902114600 12 360 3.2 0.0 0.00 0.00 0.00 83 1009.6
20260902114100 11 360 1.6 0.0 0.00 0.00 0.00 83 1009.7
20260902113559 11 360 1.6 0.0 0.00 0.00 0.00 83 1009.7
20260902113059 11 360 0.0 0.0 0.00 0.00 0.00 81 1009.8
20260902112558 11 360 0.0 0.0 0.00 0.00 0.00 81 1009.9
20260902112058 11 360 0.0 0.0 0.00 0.00 0.00 81 1009.8
20260902111559 11 360 0.0 0.0 0.00 0.00 0.00 81 1009.9
20260902111056 12 360 0.0 0.0 0.00 0.00 0.00 80 1010.0
20260902110555 12 360 0.0 0.0 0.00 0.00 0.00 79 1010.0
20260902110055 12 360 0.0 0.0 0.00 0.00 0.00 79 1010.0
20260902105554 12 360 0.0 0.0 0.00 0.00 0.00 79 1009.9
20260902105053 12 360 0.0 0.0 0.00 0.00 0.00 79 1010.0
20260902104553 12 360 0.0 0.0 0.00 0.00 0.00 79 1010.0
20260902104054 12 360 0.0 0.0 0.00 0.00 0.00 79 1010.1
20260902103552 12 360 0.0 0.0 0.00 0.00 0.00 79 1010.1
20260902103059 12 360 0.0 0.0 0.00 0.00 0.00 78 1010.0
20260902102551 12 360 0.0 0.0 0.00 0.00 0.00 77 1010.1
20260902102050 12 360 0.0 0.0 0.00 0.00 0.00 76 1010.1
20260902101555 13 360 1.6 0.0 0.00 0.00 0.00 76 1010.1
20260902101048 13 360 1.6 0.0 0.00 0.00 0.00 75 1010.1
20260902100547 13 360 1.6 0.0 0.00 0.00 0.00 73 1010.1
20260902100047 14 360 3.2 0.0 0.00 0.00 0.00 73 1010.0
20260902095546 14 360 4.8 0.0 0.00 0.00 0.00 74 1010.0
20260902095046 14 360 3.2 0.0 0.00 0.00 0.00 74 1010.2
20260902094546 14 360 4.8 0.0 0.00 0.00 0.00 74 1010.2
20260902094046 14 360 4.8 0.0 0.00 0.00 0.00 76 1010.2
20260902093545 14 360 4.8 0.0 0.00 0.00 0.00 76 1010.2
20260902093102 13 360 1.6 0.0 0.00 0.00 0.00 76 1010.1
20260902092545 13 360 0.0 0.0 0.00 0.00 0.00 73 1010.1
20260902092048 13 360 0.0 0.0 0.00 0.00 0.00 72 1010.3
20260902091551 14 360 0.0 0.0 0.00 0.00 0.00 72 1010.1
20260902091041 14 360 0.0 0.0 0.00 0.00 0.00 71 1010.1
20260902090540 15 360 0.0 0.0 0.00 0.00 0.00 71 1010.1
20260902090043 15 360 0.0 0.0 0.00 0.00 0.00 71 1010.1
20260902085539 15 360 0.0 0.0 0.00 0.00 0.00 71 1010.1
20260902085039 15 360 0.0 0.0 0.00 0.00 0.00 71 1010.2
20260902084548 15 360 0.0 0.0 0.00 0.00 0.00 70 1010.2
20260902084038 15 360 1.6 0.0 0.00 0.00 0.00 70 1010.3
20260902083538 15 360 1.6 0.0 0.00 0.00 0.00 70 1010.3
20260902083048 15 360 1.6 0.0 0.00 0.00 0.00 71 1010.3
20260902082537 15 360 1.6 0.0 0.00 0.00 0.00 72 1010.4
20260902082037 15 360 1.6 0.0 0.00 0.00 0.00 71 1010.4
20260902081540 15 360 1.6 0.0 0.00 0.00 0.00 71 1010.4
20260902081036 15 360 1.6 0.0 0.00 0.00 0.00 70 1010.4
20260902080535 15 360 3.2 0.0 0.00 0.00 0.00 70 1010.4
20260902080035 15 360 1.6 0.0 0.00 0.00 0.00 70 1010.5
20260902075533 15 360 0.0 0.0 0.00 0.00 0.00 69 1010.5
20260902075034 15 360 1.6 0.0 0.00 0.00 0.00 69 1010.5
20260902074534 15 360 1.6 0.0 0.00 0.00 0.00 69 1010.4
20260902074032 15 360 0.0 0.0 0.00 0.00 0.00 67 1010.5
20260902073532 15 360 1.6 0.0 0.00 0.00 0.00 67 1010.5
20260902073031 16 360 3.2 0.0 0.00 0.00 0.00 67 1010.5
20260902072531 16 360 3.2 0.0 0.00 0.00 0.00 67 1010.4
20260902072031 16 360 3.2 0.0 0.00 0.00 0.00 67 1010.5
20260902071535 16 360 1.6 0.0 0.00 0.00 0.00 67 1010.5
20260902071031 16 360 0.0 0.0 0.00 0.00 0.00 67 1010.5
20260902070531 16 360 0.0 0.0 0.00 0.00 0.00 66 1010.5
20260902070030 16 360 0.0 0.0 0.00 0.00 0.00 65 1010.5
20260902065531 16 360 1.6 0.0 0.00 0.00 0.00 65 1010.4
20260902065030 16 360 3.2 0.0 0.00 0.00 0.00 64 1010.5
20260902064531 17 360 3.2 0.0 0.00 0.00 0.00 64 1010.5
20260902064030 17 360 4.8 0.0 0.00 0.00 0.00 63 1010.6
20260902063532 17 360 4.8 0.0 0.00 0.00 0.00 63 1010.4
20260902063032 17 360 4.8 0.0 0.00 0.00 0.00 63 1010.5
20260902062530 17 360 3.2 0.0 0.00 0.00 0.00 63 1010.5
20260902062030 17 360 4.8 0.0 0.00 0.00 0.00 62 1010.5
20260902061542 17 360 4.8 0.0 0.00 0.00 0.00 61 1010.5
20260902061030 17 360 6.4 0.0 0.00 0.00 0.00 61 1010.5
20260902060530 18 360 4.8 0.0 0.00 0.00 0.00 61 1010.6
20260902060029 18 360 4.8 0.0 0.00 0.00 0.00 61 1010.6
20260902055532 18 360 4.8 0.0 0.00 0.00 0.00 61 1010.6
20260902055030 18 360 4.8 0.0 0.00 0.00 0.00 61 1010.7
20260902054533 18 360 3.2 0.0 0.00 0.00 0.00 61 1010.6
20260902054029 18 360 3.2 0.0 0.00 0.00 0.00 60 1010.7
20260902053531 18 360 3.2 0.0 0.00 0.00 0.00 60 1010.7
20260902053030 18 360 4.8 0.0 0.00 0.00 0.00 60 1010.7
20260902052533 18 360 4.8 0.0 0.00 0.00 0.00 61 1010.7
20260902052030 18 360 4.8 0.0 0.00 0.00 0.00 61 1010.7
20260902051530 18 360 3.2 0.0 0.00 0.00 0.00 61 1010.8
20260902051030 18 360 3.2 0.0 0.00 0.00 0.00 60 1010.8
20260902050533 18 360 1.6 0.0 0.00 0.00 0.00 60 1010.8
20260902050032 18 360 3.2 0.0 0.00 0.00 0.00 59 1010.8
20260902045529 18 360 4.8 0.0 0.00 0.00 0.00 59 1010.8
20260902045029 18 360 3.2 0.0 0.00 0.00 0.00 59 1010.8
20260902044529 18 360 3.2 0.0 0.00 0.00 0.00 58 1010.8
20260902044030 19 360 3.2 0.0 0.00 0.00 0.00 57 1010.8
20260902043529 19 360 3.2 0.0 0.00 0.00 0.00 57 1010.8
20260902043029 19 360 4.8 0.0 0.00 0.00 0.00 57 1010.8
20260902042529 19 360 4.8 0.0 0.00 0.00 0.00 57 1010.9
20260902042031 19 360 4.8 0.0 0.00 0.00 0.00 58 1010.9
20260902041529 19 360 6.4 0.0 0.00 0.00 0.00 58 1010.8
20260902041035 19 360 6.4 0.0 0.00 0.00 0.00 59 1010.8
20260902040528 19 360 6.4 0.0 0.00 0.00 0.00 59 1010.7
20260902040028 19 360 8.0 0.0 0.00 0.00 0.00 59 1010.8
20260902035527 19 360 8.0 0.0 0.00 0.00 0.00 59 1010.7
20260902035028 19 360 8.0 0.0 0.00 0.00 0.00 59 1010.7
20260902034531 19 360 8.0 0.0 0.00 0.00 0.00 59 1010.8
20260902034027 19 360 8.0 0.0 0.00 0.00 0.00 59 1010.7
20260902033528 19 360 8.0 0.0 0.00 0.00 0.00 59 1010.7
20260902033028 19 360 8.0 0.0 0.00 0.00 0.00 58 1010.7
20260902032530 20 360 8.0 0.0 0.00 0.00 0.00 58 1010.7
20260902032028 20 360 9.7 0.0 0.00 0.00 0.00 57 1010.6
20260902031528 20 360 9.7 0.0 0.00 0.00 0.00 57 1010.6
20260902031029 20 360 9.7 0.0 0.00 0.00 0.00 56 1010.6